Flag for Venezuela Weather past 2 weeks in Valencia, Venezuela

Now
84 °F

Partly sunny.


Feels Like: 88 °F
Forecast: 70 / 85 °F
Wind: 8 mph from Southwest

Location: Valencia Airport

Current Time: Aug 20, 2014 at 2:35:46 PM

Latest Report: Aug 20, 2014 at 1:30 PM


Visibility: N/A

Pressure: 29.98 "Hg

Humidity: 62%

Dew point: 70 °F

Location of ValenciaLocation

Historic Weather in Valencia — Graph

°F

Valencia temperature yesterday

Maximum temperature yesterday: 86 °F (at 2:30 PM)
Minimum temperature yesterday: 72 °F (at 4:30 AM)
Average temperature yesterday: 79 °F

Past Weeks' High & Low Weather Summary

 TemperatureHumidityPressure
High90 °F (Aug 5, 2:30 PM)100% (Aug 7, 1:30 AM)30.09 "Hg (Aug 7, 1:30 AM)
Low70 °F (Aug 18, 9:30 PM)49% (Aug 12, 2:30 PM)29.89 "Hg (Aug 13, 2:30 PM)
Average79 °F77%30.00 "Hg
* Reported Aug 5 1:30 PM — Aug 20 1:30 PM, Valencia, Weather by CustomWeather, © 2014

Note: Actual official high and low records may vary slightly from our data, if they occured in-between our weather recording intervals... More about our weather records

Advertising

Valencia weather history for previous 24 hours

 ConditionsComfort  
Time TempWeatherWind HumidityBarometerVisibility
1:30 PM
Aug 20
84 °FPartly sunny.8 mph62%29.98 "HgN/A
12:30 PM86 °FPartly sunny.3 mph59%29.98 "HgN/A
10:30 AM82 °FPartly sunny.8 mph66%30.07 "HgN/A
9:30 AM84 °FPartly sunny.7 mph66%30.04 "HgN/A
8:30 AM81 °FPartly sunny.2 mph74%30.04 "HgN/A
7:30 AM75 °FPartly sunny.3 mph94%29.98 "HgN/A
6:30 AM73 °FScattered clouds.2 mph89%29.98 "HgN/A
5:30 AM70 °FScattered clouds.6 mph94%29.98 "HgN/A
10:30 PM
Aug 19
77 °FPassing clouds.6 mph83%30.07 "HgN/A
9:30 PM77 °FPassing clouds.6 mph83%30.04 "HgN/A
8:30 PM77 °FPassing clouds.6 mph83%30.01 "HgN/A
7:30 PM77 °FPassing clouds.7 mph83%29.98 "HgN/A
6:30 PM79 °FPassing clouds.7 mph79%29.95 "HgN/A
5:30 PM81 °FPartly sunny.9 mph70%29.95 "HgN/A
4:30 PM82 °FPartly sunny.9 mph66%29.92 "HgN/A
3:30 PM84 °FPartly sunny.10 mph62%29.92 "HgN/A
2:30 PM86 °FScattered clouds.6 mph59%29.95 "HgN/A
Weather by CustomWeather, © 2014

See weather overviewHow to use our weather pages